Location: Recife
(8.0585°S, 34.8848°W)
Time: 12:41:16
(UTC-03:00)

Courier 1B Rocket - All Passes

Search period start: 14 April 2026 00:00
Search period end: 24 April 2026 00:00
Orbit: 920 x 1201 km, 28.2° (Epoch: 14 April)

Date Brightness Start Highest point End Pass type
(mag) Time Alt. Az. Time Alt. Az. Time Alt. Az.
14 Apr - 02:05:39 10° NNE 02:07:14 11° NNE 02:08:51 10° NE visible
14 Apr - 03:54:41 10° NW 04:00:43 47° NNE 04:07:06 10° ESE visible
14 Apr - 05:47:55 10° W 05:54:13 50° SSW 06:01:00 10° SE daylight
14 Apr - 07:43:38 10° WSW 07:48:39 21° SSW 07:53:55 10° SSE daylight
14 Apr - 09:40:09 10° SSW 09:44:04 15° S 09:48:04 10° SSE daylight
14 Apr - 11:34:00 10° SSW 11:39:35 21° SSE 11:45:16 10° ESE daylight
14 Apr - 13:26:49 10° SW 13:34:19 48° SSE 13:41:46 10° E daylight
14 Apr - 15:20:35 10° WSW 15:28:17 60° NNW 15:35:43 10° NE daylight
14 Apr - 17:17:23 10° WNW 17:22:05 17° NNW 17:26:39 10° N daylight
15 Apr - 02:54:10 10° NNW 02:59:31 30° NNE 03:05:03 10° E visible
15 Apr - 04:46:30 10° WNW 04:52:50 73° SSW 04:59:39 10° ESE visible
15 Apr - 06:41:27 10° WSW 06:46:53 26° SSW 06:52:39 10° SE daylight
15 Apr - 08:38:08 10° SW 08:41:59 15° S 08:45:59 10° SSE daylight
15 Apr - 10:32:50 10° SSW 10:37:35 17° S 10:42:26 10° SE daylight
15 Apr - 12:25:37 10° SW 12:32:35 35° SSE 12:39:37 10° E daylight
15 Apr - 14:18:52 10° WSW 14:26:46 86° NNW 14:34:29 10° ENE daylight
15 Apr - 16:14:14 10° W 16:20:32 27° NNW 16:26:39 10° NNE daylight
16 Apr - 01:54:05 10° NNW 01:58:16 19° NNE 02:02:30 10° ENE visible
16 Apr - 03:45:21 10° NW 03:51:35 75° NNE 03:58:11 10° ESE visible
16 Apr - 05:39:29 10° W 05:45:16 34° SSW 05:51:27 10° SE daylight
16 Apr - 07:35:52 10° SW 07:40:00 16° S 07:44:19 10° SSE daylight
16 Apr - 09:31:34 10° SSW 09:35:32 15° S 09:39:36 10° SE daylight
16 Apr - 11:24:33 10° SW 11:30:46 27° SSE 11:37:09 10° ESE daylight
16 Apr - 13:17:24 10° SW 13:25:10 68° SSE 13:32:56 10° ENE daylight
16 Apr - 15:11:47 10° W 15:19:01 40° NNW 15:26:04 10° NE daylight
16 Apr - 17:11:22 10° NW 17:13:04 11° NNW 17:14:45 10° NNW daylight
17 Apr - 00:55:12 10° NNE 00:56:55 11° NNE 00:58:38 10° NE night (unlit)
17 Apr - 02:44:27 10° NW 02:50:25 47° NNE 02:56:33 10° ESE visible
17 Apr - 04:37:46 10° W 04:43:50 48° SSW 04:50:16 10° SE visible
17 Apr - 06:33:34 10° WSW 06:38:10 19° SSW 06:42:58 10° SSE daylight
17 Apr - 08:30:03 10° SSW 08:33:29 14° S 08:37:00 10° SSE daylight
17 Apr - 10:23:32 10° SSW 10:28:53 21° SSE 10:34:24 10° ESE daylight
17 Apr - 12:16:09 10° SW 12:23:31 49° SSE 12:31:02 10° E daylight
17 Apr - 14:09:48 10° WSW 14:17:29 59° NNW 14:25:06 10° NE daylight
17 Apr - 16:06:29 10° WNW 16:11:23 18° NNW 16:16:12 10° N daylight
18 Apr - 01:43:52 10° NNW 01:49:14 30° NNE 01:54:37 10° E visible
18 Apr - 03:36:18 10° WNW 03:42:32 71° SSW 03:49:01 10° SE visible
18 Apr - 05:31:22 10° WSW 05:36:28 24° SSW 05:41:49 10° SE daylight
18 Apr - 07:28:09 10° SSW 07:31:28 14° S 07:34:54 10° SSE daylight
18 Apr - 09:22:33 10° SSW 09:26:56 17° SSE 09:31:29 10° SE daylight
18 Apr - 11:15:04 10° SW 11:21:49 35° SSE 11:28:49 10° E daylight
18 Apr - 13:08:10 10° WSW 13:15:55 85° NNW 13:23:47 10° ENE daylight
18 Apr - 15:03:25 10° W 15:09:47 27° NNW 15:16:04 10° NNE daylight
19 Apr - 00:43:39 10° NNW 00:47:58 19° NNE 00:52:14 10° ENE night (unlit)
19 Apr - 02:35:06 10° NW 02:41:20 76° NNE 02:47:40 10° ESE visible
19 Apr - 04:29:22 10° W 04:34:56 32° SSW 04:40:44 10° SE visible
19 Apr - 06:25:55 10° SW 06:29:34 15° S 06:33:19 10° SSE daylight
19 Apr - 08:21:29 10° SSW 08:24:58 14° S 08:28:33 10° SE daylight
19 Apr - 10:14:07 10° SW 10:20:04 26° SSE 10:26:17 10° ESE daylight
19 Apr - 12:06:48 10° SW 12:14:21 69° SSE 12:22:10 10° ENE daylight
19 Apr - 14:01:03 10° W 14:08:13 40° NNW 14:15:24 10° NE daylight
19 Apr - 16:00:21 10° NW 16:02:23 11° NNW 16:04:25 10° NNW daylight
19 Apr - 23:44:24 10° N 23:46:35 12° NNE 23:48:44 10° NE night (unlit)
20 Apr - 01:34:08 10° NW 01:40:09 48° NNE 01:46:09 10° ESE visible
20 Apr - 03:27:36 10° W 03:33:33 46° SSW 03:39:41 10° SE visible
20 Apr - 05:23:33 10° SW 05:27:46 18° SSW 05:32:08 10° SSE daylight
20 Apr - 07:20:08 10° SSW 07:22:59 13° S 07:25:54 10° SSE daylight
20 Apr - 09:13:15 10° SSW 09:18:16 20° SSE 09:23:29 10° ESE daylight
20 Apr - 11:05:39 10° SW 11:12:45 48° SSE 11:20:12 10° E daylight
20 Apr - 12:59:09 10° WSW 13:06:40 58° NNW 13:14:21 10° NE daylight
20 Apr - 14:55:44 10° WNW 15:00:39 18° NNW 15:05:33 10° N daylight
21 Apr - 00:33:26 10° NNW 00:38:57 31° NNE 00:44:22 10° E night (unlit)
21 Apr - 02:26:03 10° WNW 02:32:16 69° SSW 02:38:33 10° SE visible
21 Apr - 04:21:17 10° WSW 04:26:08 23° SSW 04:31:08 10° SSE visible
21 Apr - 06:18:18 10° SSW 06:21:02 13° S 06:23:51 10° SSE daylight
21 Apr - 08:12:26 10° SSW 08:16:24 16° SSE 08:20:30 10° SE daylight
21 Apr - 10:04:40 10° SW 10:11:08 35° SSE 10:17:56 10° E daylight
21 Apr - 11:57:36 10° WSW 12:05:08 84° NNW 12:12:59 10° ENE daylight
21 Apr - 13:52:45 10° W 13:59:00 27° NNW 14:05:19 10° NNE daylight
21 Apr - 23:33:03 10° NNW 23:37:39 20° NNE 23:42:06 10° ENE night (unlit)
22 Apr - 01:24:44 10° WNW 01:31:05 78° NNE 01:37:19 10° ESE visible
22 Apr - 03:19:11 10° W 03:24:38 31° SSW 03:30:11 10° SE visible
22 Apr - 05:15:58 10° SW 05:19:11 14° S 05:22:28 10° SSE daylight
22 Apr - 07:11:33 10° SSW 07:14:29 13° S 07:17:31 10° SSE daylight
22 Apr - 09:03:50 10° SSW 09:09:27 25° SSE 09:15:22 10° ESE daylight
22 Apr - 10:56:20 10° SW 11:03:36 69° SSE 11:11:17 10° ENE daylight
22 Apr - 12:50:29 10° W 12:57:25 39° NNW 13:04:34 10° NE daylight
22 Apr - 14:49:41 10° NW 14:51:40 11° NNW 14:53:41 10° NNW daylight
22 Apr - 22:33:24 10° N 22:36:13 13° NNE 22:38:57 10° NE night (unlit)
23 Apr - 00:23:40 10° NW 00:29:53 50° NNE 00:35:54 10° ESE night (unlit)
23 Apr - 02:17:19 10° W 02:23:17 45° SSW 02:29:15 10° SE visible
23 Apr - 04:13:30 10° SW 04:17:26 17° SSW 04:21:27 10° SSE visible
23 Apr - 06:10:20 10° SSW 06:12:34 12° S 06:14:50 10° SSE daylight
23 Apr - 08:03:06 10° SSW 08:07:44 19° SSE 08:12:34 10° ESE daylight
23 Apr - 09:55:17 10° SW 10:02:05 48° SSE 10:09:19 10° E daylight
23 Apr - 11:48:40 10° WSW 11:55:53 57° NNW 12:03:28 10° NE daylight
23 Apr - 13:45:09 10° WNW 13:49:55 17° NNW 13:54:44 10° N daylight
23 Apr - 23:22:49 10° NNW 23:28:38 32° NNE 23:34:12 10° E night (unlit)
